Time,TemperatureF,DewpointF,PressureIn,WindDirection,WindDirectionDegrees,WindSpeedMPH,WindSpeedGustMPH,Humidity,HourlyPrecipIn,Conditions,Clouds,dailyrainin,SolarRadiationWatts/m^2,SoftwareType,DateUTC
2013-11-30 00:02:00,42.0,30.0,-100.00,NNE,15,5.0,14.0,63,0.00,,,0.00,0.000000,,2013-11-30 05:02:00,
2013-11-30 00:12:00,42.0,30.0,-100.00,NNE,15,5.0,14.0,63,0.00,,,0.00,0.000000,,2013-11-30 05:12:00,
2013-11-30 00:22:00,42.0,30.0,-100.00,NNE,15,5.0,14.0,63,0.00,,,0.00,0.000000,,2013-11-30 05:22:00,
2013-11-30 00:53:00,42.0,31.0,-100.00,NNE,20,5.0,12.0,64,0.00,,,-99.99,0.000000,,2013-11-30 05:53:00,
2013-11-30 01:02:00,42.0,31.0,-100.00,NNE,20,5.0,12.0,64,0.00,,,-99.99,0.000000,,2013-11-30 06:02:00,
2013-11-30 01:12:00,42.0,31.0,-100.00,NNE,20,5.0,12.0,64,0.00,,,-99.99,0.000000,,2013-11-30 06:12:00,
2013-11-30 01:22:00,42.0,31.0,-100.00,NNE,20,5.0,12.0,64,0.00,,,-99.99,0.000000,,2013-11-30 06:22:00,
2013-11-30 01:52:00,42.0,31.0,-100.00,NNE,24,5.0,12.0,65,0.00,,,0.00,0.000000,,2013-11-30 06:52:00,
2013-11-30 02:02:00,42.0,31.0,-100.00,NNE,24,5.0,12.0,65,0.00,,,0.00,0.000000,,2013-11-30 07:02:00,
2013-11-30 02:12:00,42.0,31.0,-100.00,NNE,24,5.0,12.0,65,0.00,,,0.00,0.000000,,2013-11-30 07:12:00,
2013-11-30 02:21:00,42.0,31.0,-100.00,NNE,24,5.0,12.0,65,0.00,,,0.00,0.000000,,2013-11-30 07:21:00,
2013-11-30 02:52:00,43.0,32.0,-100.00,NNE,15,5.0,14.0,65,0.00,,,0.00,0.000000,,2013-11-30 07:52:00,
2013-11-30 03:02:00,43.0,32.0,-100.00,NNE,15,5.0,14.0,65,0.00,,,0.00,0.000000,,2013-11-30 08:02:00,
2013-11-30 03:11:00,43.0,32.0,-100.00,NNE,15,5.0,14.0,65,0.00,,,0.00,0.000000,,2013-11-30 08:11:00,
2013-11-30 03:22:00,43.0,32.0,-100.00,NNE,15,5.0,14.0,65,0.00,,,0.00,0.000000,,2013-11-30 08:22:00,
2013-11-30 03:52:00,43.0,32.0,-100.00,NNE,22,5.0,12.0,65,0.00,,,0.00,0.000000,,2013-11-30 08:52:00,
2013-11-30 04:02:00,43.0,32.0,-100.00,NNE,22,5.0,12.0,65,0.00,,,0.00,0.000000,,2013-11-30 09:02:00,
2013-11-30 04:11:00,43.0,32.0,-100.00,NNE,22,5.0,12.0,65,0.00,,,0.00,0.000000,,2013-11-30 09:11:00,
2013-11-30 04:22:00,43.0,32.0,-100.00,NNE,22,5.0,12.0,65,0.00,,,0.00,0.000000,,2013-11-30 09:22:00,
2013-11-30 04:54:00,44.0,33.0,-100.00,NNE,25,6.0,13.0,65,0.00,,,0.00,0.000000,,2013-11-30 09:54:00,
2013-11-30 05:03:00,44.0,33.0,-100.00,NNE,25,6.0,13.0,65,0.00,,,0.00,0.000000,,2013-11-30 10:03:00,
2013-11-30 05:13:00,44.0,33.0,-100.00,NNE,25,6.0,13.0,65,0.00,,,0.00,0.000000,,2013-11-30 10:13:00,
2013-11-30 05:23:00,44.0,33.0,-100.00,NNE,25,6.0,13.0,65,0.00,,,0.00,0.000000,,2013-11-30 10:23:00,
2013-11-30 05:53:00,44.0,33.0,-100.00,NNE,21,5.0,13.0,66,0.00,,,0.00,0.000000,,2013-11-30 10:53:00,
2013-11-30 06:02:00,44.0,33.0,-100.00,NNE,21,5.0,13.0,66,0.00,,,0.00,0.000000,,2013-11-30 11:02:00,
2013-11-30 06:12:00,44.0,33.0,-100.00,NNE,21,5.0,13.0,66,0.00,,,0.00,0.000000,,2013-11-30 11:12:00,
2013-11-30 06:22:00,44.0,33.0,-100.00,NNE,21,5.0,13.0,66,0.00,,,0.00,0.000000,,2013-11-30 11:22:00,
2013-11-30 06:53:00,44.0,34.0,-100.00,NNE,20,5.0,14.0,67,0.00,,,0.00,0.000000,,2013-11-30 11:53:00,
2013-11-30 07:02:00,44.0,34.0,-100.00,NNE,20,5.0,14.0,67,0.00,,,0.00,0.000000,,2013-11-30 12:02:00,
2013-11-30 07:11:00,44.0,34.0,-100.00,NNE,20,5.0,14.0,67,0.00,,,0.00,0.000000,,2013-11-30 12:11:00,
2013-11-30 07:22:00,44.0,34.0,-100.00,NNE,20,5.0,14.0,67,0.00,,,0.00,0.000000,,2013-11-30 12:22:00,
2013-11-30 07:52:00,45.0,34.0,-100.00,NNE,12,5.0,13.0,66,0.00,,,0.00,9.000000,,2013-11-30 12:52:00,
2013-11-30 08:02:00,45.0,34.0,-100.00,NNE,12,5.0,13.0,66,0.00,,,0.00,9.000000,,2013-11-30 13:02:00,
2013-11-30 08:11:00,45.0,34.0,-100.00,NNE,12,5.0,13.0,66,0.00,,,0.00,9.000000,,2013-11-30 13:11:00,
2013-11-30 08:21:00,45.0,34.0,-100.00,NNE,12,5.0,13.0,66,0.00,,,0.00,9.000000,,2013-11-30 13:21:00,
2013-11-30 08:52:00,47.0,36.0,-100.00,NNE,24,6.0,14.0,65,0.00,,,0.00,60.000000,,2013-11-30 13:52:00,
2013-11-30 09:02:00,47.0,36.0,-100.00,NNE,24,6.0,14.0,65,0.00,,,0.00,60.000000,,2013-11-30 14:02:00,
2013-11-30 09:12:00,47.0,36.0,-100.00,NNE,24,6.0,14.0,65,0.00,,,0.00,60.000000,,2013-11-30 14:12:00,
2013-11-30 09:22:00,47.0,36.0,-100.00,NNE,24,6.0,14.0,65,0.00,,,0.00,60.000000,,2013-11-30 14:22:00,
2013-11-30 09:53:00,50.0,38.0,-100.00,NNE,30,6.0,14.0,62,0.00,,,0.00,271.000000,,2013-11-30 14:53:00,
2013-11-30 10:02:00,50.0,38.0,-100.00,NNE,30,6.0,14.0,62,0.00,,,0.00,271.000000,,2013-11-30 15:02:00,
2013-11-30 10:11:00,50.0,38.0,-100.00,NNE,30,6.0,14.0,62,0.00,,,0.00,271.000000,,2013-11-30 15:11:00,
2013-11-30 10:22:00,50.0,38.0,-100.00,NNE,30,6.0,14.0,62,0.00,,,0.00,271.000000,,2013-11-30 15:22:00,
2013-11-30 10:54:00,52.0,39.0,-100.00,NNE,30,7.0,14.0,60,0.00,,,0.00,462.000000,,2013-11-30 15:54:00,
2013-11-30 11:03:00,52.0,39.0,-100.00,NNE,30,7.0,14.0,60,0.00,,,0.00,462.000000,,2013-11-30 16:03:00,
2013-11-30 11:13:00,52.0,39.0,-100.00,NNE,30,7.0,14.0,60,0.00,,,0.00,462.000000,,2013-11-30 16:13:00,
2013-11-30 11:23:00,52.0,39.0,-100.00,NNE,30,7.0,14.0,60,0.00,,,0.00,462.000000,,2013-11-30 16:23:00,
2013-11-30 11:53:00,54.0,40.0,-100.00,NE,34,6.0,18.0,59,0.00,,,0.00,556.000000,,2013-11-30 16:53:00,
2013-11-30 12:02:00,54.0,40.0,-100.00,NE,34,6.0,18.0,59,0.00,,,0.00,556.000000,,2013-11-30 17:02:00,
2013-11-30 12:11:00,54.0,40.0,-100.00,NE,34,6.0,18.0,59,0.00,,,0.00,556.000000,,2013-11-30 17:11:00,
2013-11-30 12:22:00,54.0,40.0,-100.00,NE,34,6.0,18.0,59,0.00,,,0.00,556.000000,,2013-11-30 17:22:00,
2013-11-30 12:53:00,55.0,41.0,-100.00,NNE,31,7.0,15.0,59,0.00,,,0.00,588.000000,,2013-11-30 17:53:00,
2013-11-30 13:02:00,55.0,41.0,-100.00,NNE,31,7.0,15.0,59,0.00,,,0.00,588.000000,,2013-11-30 18:02:00,
2013-11-30 13:12:00,55.0,41.0,-100.00,NNE,31,7.0,15.0,59,0.00,,,0.00,588.000000,,2013-11-30 18:12:00,
2013-11-30 13:22:00,55.0,41.0,-100.00,NNE,31,7.0,15.0,59,0.00,,,0.00,588.000000,,2013-11-30 18:22:00,
2013-11-30 13:52:00,55.0,41.0,-100.00,NE,36,5.0,15.0,59,0.00,,,0.00,551.000000,,2013-11-30 18:52:00,
2013-11-30 14:02:00,55.0,41.0,-100.00,NE,36,5.0,15.0,59,0.00,,,0.00,551.000000,,2013-11-30 19:02:00,
2013-11-30 14:11:00,55.0,41.0,-100.00,NE,36,5.0,15.0,59,0.00,,,0.00,551.000000,,2013-11-30 19:11:00,
2013-11-30 14:22:00,55.0,41.0,-100.00,NE,36,5.0,15.0,59,0.00,,,0.00,551.000000,,2013-11-30 19:22:00,
2013-11-30 14:52:00,54.0,40.0,-100.00,NE,34,6.0,16.0,59,0.00,,,0.00,468.000000,,2013-11-30 19:52:00,
2013-11-30 15:02:00,54.0,40.0,-100.00,NE,34,6.0,16.0,59,0.00,,,0.00,468.000000,,2013-11-30 20:02:00,
2013-11-30 15:11:00,54.0,40.0,-100.00,NE,34,6.0,16.0,59,0.00,,,0.00,468.000000,,2013-11-30 20:11:00,
2013-11-30 15:22:00,54.0,40.0,-100.00,NE,34,6.0,16.0,59,0.00,,,0.00,468.000000,,2013-11-30 20:22:00,
2013-11-30 15:52:00,52.0,40.0,-100.00,NNE,26,5.0,11.0,63,0.00,,,0.00,158.000000,,2013-11-30 20:52:00,
2013-11-30 16:02:00,52.0,40.0,-100.00,NNE,26,5.0,11.0,63,0.00,,,0.00,158.000000,,2013-11-30 21:02:00,
2013-11-30 16:11:00,52.0,40.0,-100.00,NNE,26,5.0,11.0,63,0.00,,,0.00,158.000000,,2013-11-30 21:11:00,
2013-11-30 16:22:00,52.0,40.0,-100.00,NNE,26,5.0,11.0,63,0.00,,,0.00,158.000000,,2013-11-30 21:22:00,
2013-11-30 16:53:00,51.0,39.0,-100.00,NE,36,4.0,13.0,64,0.00,,,0.00,55.000000,,2013-11-30 21:53:00,
2013-11-30 17:04:00,51.0,39.0,-100.00,NE,36,4.0,13.0,64,0.00,,,0.00,55.000000,,2013-11-30 22:04:00,
2013-11-30 17:12:00,51.0,39.0,-100.00,NE,36,4.0,13.0,64,0.00,,,0.00,55.000000,,2013-11-30 22:12:00,
2013-11-30 17:23:00,51.0,39.0,-100.00,NE,36,4.0,13.0,64,0.00,,,0.00,55.000000,,2013-11-30 22:23:00,
2013-11-30 17:52:00,51.0,40.0,-100.00,NNE,30,4.0,11.0,65,0.00,,,0.00,7.000000,,2013-11-30 22:52:00,
2013-11-30 18:02:00,51.0,40.0,-100.00,NNE,30,4.0,11.0,65,0.00,,,0.00,7.000000,,2013-11-30 23:02:00,
2013-11-30 18:12:00,51.0,40.0,-100.00,NNE,30,4.0,11.0,65,0.00,,,0.00,7.000000,,2013-11-30 23:12:00,
2013-11-30 18:22:00,51.0,40.0,-100.00,NNE,30,4.0,11.0,65,0.00,,,0.00,7.000000,,2013-11-30 23:22:00,
2013-11-30 18:53:00,49.0,39.0,-100.00,NNE,20,4.0,10.0,67,0.00,,,0.00,0.000000,,2013-11-30 23:53:00,
2013-11-30 19:02:00,49.0,39.0,-100.00,NNE,20,4.0,10.0,67,0.00,,,0.00,0.000000,,2013-12-01 00:02:00,
2013-11-30 19:11:00,49.0,39.0,-100.00,NNE,20,4.0,10.0,67,0.00,,,0.00,0.000000,,2013-12-01 00:11:00,
2013-11-30 19:22:00,49.0,39.0,-100.00,NNE,20,4.0,10.0,67,0.00,,,0.00,0.000000,,2013-12-01 00:22:00,
2013-11-30 19:52:00,48.0,38.0,-100.00,North,11,3.0,8.0,68,0.00,,,0.00,0.000000,,2013-12-01 00:52:00,
2013-11-30 20:02:00,48.0,38.0,-100.00,North,11,3.0,8.0,68,0.00,,,0.00,0.000000,,2013-12-01 01:02:00,
2013-11-30 20:12:00,48.0,38.0,-100.00,North,11,3.0,8.0,68,0.00,,,0.00,0.000000,,2013-12-01 01:12:00,
2013-11-30 20:21:00,48.0,38.0,-100.00,North,11,3.0,8.0,68,0.00,,,0.00,0.000000,,2013-12-01 01:21:00,
2013-11-30 20:52:00,48.0,38.0,-100.00,North,5,3.0,8.0,68,0.00,,,0.00,0.000000,,2013-12-01 01:52:00,
2013-11-30 21:01:00,48.0,38.0,-100.00,North,5,3.0,8.0,68,0.00,,,0.00,0.000000,,2013-12-01 02:01:00,
2013-11-30 21:11:00,48.0,38.0,-100.00,North,5,3.0,8.0,68,0.00,,,0.00,0.000000,,2013-12-01 02:11:00,
2013-11-30 21:22:00,48.0,38.0,-100.00,North,5,3.0,8.0,68,0.00,,,0.00,0.000000,,2013-12-01 02:22:00,
2013-11-30 21:52:00,47.0,37.0,-100.00,North,10,3.0,8.0,69,0.00,,,0.00,0.000000,,2013-12-01 02:52:00,
2013-11-30 22:02:00,47.0,37.0,-100.00,North,10,3.0,8.0,69,0.00,,,0.00,0.000000,,2013-12-01 03:02:00,
2013-11-30 22:11:00,47.0,37.0,-100.00,North,10,3.0,8.0,69,0.00,,,0.00,0.000000,,2013-12-01 03:11:00,
2013-11-30 22:22:00,47.0,37.0,-100.00,North,10,3.0,8.0,69,0.00,,,0.00,0.000000,,2013-12-01 03:22:00,
2013-11-30 23:03:00,-999.0,-99.9,-100.00,NW,307,2.0,6.0,-999,0.00,,,0.00,0.000000,,2013-12-01 04:03:00,
2013-11-30 23:22:00,46.0,37.0,-100.00,NW,307,2.0,6.0,70,0.00,,,0.00,0.000000,,2013-12-01 04:22:00,